Weather History for Wolf Point, MT

Change the Weather History Date:

Saturday, February 23, 2013

  Actual Average Record
Temperature  
Mean Temperature 31 °F -  
Max Temperature 43 °F 33 °F 44 °F (2008)
Min Temperature 18 °F 9 °F -21 °F (2011)
Degree Days  
Heating Degree Days 34    
Cooling Degree Days 0    
Moisture  
Dew Point 23 °F    
Average Humidity 74    
Maximum Humidity 89    
Minimum Humidity 58    
Precipitation  
Precipitation 0.00 in 0.01 in 0.06 in (2006)
Month to date precipitation 0.09 0.15  
Year to date precipitation 0.20 0.46  
Sea Level Pressure  
Sea Level Pressure 29.72 in    
Wind  
Wind Speed 4 mph (West)    
Max Wind Speed 16 mph    
Max Gust Speed -    
Visibility 10 miles    
Events      
T = Trace of Precipitation, MM = Missing Value Source: NWS Daily Summary

Daily Weather History Graph

Daily Weather History Graph

Search for Another Location

Airport:

Trip Planner

Search our weather history database for the weather conditions in past years. The results will help you decide how hot, cold, wet, or windy it might be!

Date:

Astronomy

Feb. 23, 2013 Rise Set
Actual Time 6:54 AM MST 5:37 PM MST
Civil Twilight 6:22 AM MST 6:09 PM MST
Nautical Twilight 5:46 AM MST 6:45 PM MST
Astronomical Twilight 5:10 AM MST 7:21 PM MST
Moon 3:46 PM MST (2/23) 5:24 AM MST (2/23)
Length of Visible Light 11h 46m
Length of Day
10h 43m
Waxing Gibbous, 95% of the Moon is Illuminated
Feb 23
Waxing Gibbous
Feb 25
Full
Mar 4
Last Quarter
Mar 11
New
Mar 19
First Quarter

Hourly Weather History & Observations

Time (MST) Temp. Windchill Dew Point Humidity Pressure Visibility Wind Dir Wind Speed Gust Speed Precip Events Conditions
12:53 AM 19.9 °F - 15.1 °F 81% 29.68 in 10.0 mi Calm Calm - N/A   Clear
1:53 AM 18.0 °F 12.7 °F 14.0 °F 84% 29.66 in 10.0 mi ENE 3.5 mph - N/A   Clear
2:53 AM 19.0 °F 13.9 °F 15.1 °F 85% 29.63 in 10.0 mi ENE 3.5 mph - N/A   Mostly Cloudy
3:53 AM 19.9 °F - 16.0 °F 85% 29.63 in 10.0 mi Calm Calm - N/A   Mostly Cloudy
4:53 AM 19.9 °F - 16.0 °F 85% 29.63 in 10.0 mi Calm Calm - N/A   Clear
5:53 AM 21.9 °F - 17.1 °F 82% 29.63 in 10.0 mi Calm Calm - N/A   Overcast
6:53 AM 21.9 °F - 18.0 °F 85% 29.64 in 10.0 mi Calm Calm - N/A   Overcast
7:53 AM 21.9 °F - 19.0 °F 89% 29.65 in 10.0 mi Calm Calm - N/A   Overcast
8:53 AM 26.1 °F - 21.0 °F 81% 29.66 in 10.0 mi Calm Calm - N/A   Overcast
9:53 AM 28.9 °F - 21.9 °F 75% 29.66 in 10.0 mi Calm Calm - N/A   Clear
10:53 AM 35.1 °F - 24.1 °F 64% 29.66 in 10.0 mi Calm Calm - N/A   Clear
11:53 AM 39.0 °F 36.8 °F 27.0 °F 62% 29.67 in 10.0 mi WSW 3.5 mph - N/A   Mostly Cloudy
12:53 PM 39.9 °F 36.7 °F 27.0 °F 60% 29.68 in 10.0 mi WSW 4.6 mph - N/A   Overcast
1:53 PM 41.0 °F 37.1 °F 28.9 °F 62% 29.69 in 10.0 mi WSW 5.8 mph - N/A   Partly Cloudy
2:53 PM 42.1 °F 34.5 °F 28.0 °F 58% 29.70 in 10.0 mi WNW 15.0 mph - N/A   Clear
3:53 PM 39.9 °F 33.4 °F 27.0 °F 60% 29.73 in 10.0 mi WNW 10.4 mph - N/A   Clear
4:53 PM 37.9 °F 28.9 °F 26.1 °F 62% 29.77 in 10.0 mi WNW 16.1 mph - N/A   Mostly Cloudy
5:53 PM 36.0 °F 29.0 °F 27.0 °F 70% 29.79 in 10.0 mi WNW 9.2 mph - N/A   Overcast
6:53 PM 37.0 °F 28.9 °F 27.0 °F 67% 29.82 in 10.0 mi West 12.7 mph - N/A   Overcast
7:53 PM 36.0 °F 28.5 °F 28.0 °F 73% 29.84 in 10.0 mi WSW 10.4 mph - N/A   Overcast
8:53 PM 35.1 °F 28.6 °F 28.0 °F 76% 29.85 in 10.0 mi WSW 8.1 mph - N/A   Overcast
9:53 PM 35.1 °F 27.4 °F 28.0 °F 76% 29.86 in 10.0 mi West 10.4 mph - N/A   Overcast
10:53 PM 34.0 °F 26.0 °F 28.9 °F 82% 29.88 in 10.0 mi West 10.4 mph - N/A   Overcast
11:53 PM 33.1 °F 26.9 °F 28.0 °F 82% 29.90 in 10.0 mi West 6.9 mph - N/A   Mostly Cloudy